Year,Month,Day,Hour,Minute,Value (Times are PST for temperature in C)
2009,09,26,00,00,9.10
2009,09,26,00,01,9.20
2009,09,26,00,02,9.10
2009,09,26,00,03,9.10
2009,09,26,00,04,9.00
2009,09,26,00,05,9.00
2009,09,26,00,06,9.00
2009,09,26,00,07,8.90
2009,09,26,00,08,9.00
2009,09,26,00,09,9.00
2009,09,26,00,10,9.00
2009,09,26,00,11,9.00
2009,09,26,00,12,9.10
2009,09,26,00,13,9.10
2009,09,26,00,14,9.20
2009,09,26,00,15,9.20
2009,09,26,00,16,9.20
2009,09,26,00,17,9.20
2009,09,26,00,18,9.20
2009,09,26,00,19,9.20
2009,09,26,00,20,9.20
2009,09,26,00,21,9.20
2009,09,26,00,22,9.10
2009,09,26,00,23,9.00
2009,09,26,00,24,8.90
2009,09,26,00,25,8.80
2009,09,26,00,26,8.80
2009,09,26,00,27,8.80
2009,09,26,00,28,8.80
2009,09,26,00,29,8.80
2009,09,26,00,30,8.80
2009,09,26,00,31,8.80
2009,09,26,00,32,8.80
2009,09,26,00,33,8.80
2009,09,26,00,34,8.80
2009,09,26,00,35,8.70
2009,09,26,00,36,8.70
2009,09,26,00,37,8.70
2009,09,26,00,38,8.60
2009,09,26,00,39,8.60
2009,09,26,00,40,8.50
2009,09,26,00,41,8.50
2009,09,26,00,42,8.50
2009,09,26,00,43,8.50
2009,09,26,00,44,8.50
2009,09,26,00,45,8.40
2009,09,26,00,46,8.40
2009,09,26,00,47,8.40
2009,09,26,00,48,8.40
2009,09,26,00,49,8.40
2009,09,26,00,50,8.50
2009,09,26,00,51,8.60
2009,09,26,00,52,8.60
2009,09,26,00,53,8.70
2009,09,26,00,54,8.70
2009,09,26,00,55,8.70
2009,09,26,00,56,8.70
2009,09,26,00,57,8.70
2009,09,26,00,58,8.70
2009,09,26,00,59,8.70
2009,09,26,01,00,8.80
2009,09,26,01,01,8.80
2009,09,26,01,02,8.80
2009,09,26,01,03,8.90
2009,09,26,01,04,8.90
2009,09,26,01,05,8.90
2009,09,26,01,06,8.90
2009,09,26,01,07,8.90
2009,09,26,01,08,9.00
2009,09,26,01,09,9.00
2009,09,26,01,10,9.00
2009,09,26,01,11,9.00
2009,09,26,01,12,9.00
2009,09,26,01,13,9.00
2009,09,26,01,14,9.10
2009,09,26,01,15,9.10
2009,09,26,01,16,9.10
2009,09,26,01,17,9.00
2009,09,26,01,18,9.00
2009,09,26,01,19,8.90
2009,09,26,01,20,8.90
2009,09,26,01,21,8.90
2009,09,26,01,22,8.90
2009,09,26,01,23,8.90
2009,09,26,01,24,8.90
2009,09,26,01,25,8.90
2009,09,26,01,26,8.90
2009,09,26,01,27,8.90
2009,09,26,01,28,8.90
2009,09,26,01,29,8.90
2009,09,26,01,30,8.90
2009,09,26,01,31,8.90
2009,09,26,01,32,8.90
2009,09,26,01,33,8.90
2009,09,26,01,34,8.90
2009,09,26,01,35,8.90
2009,09,26,01,36,8.90
2009,09,26,01,37,8.90
2009,09,26,01,38,9.00
2009,09,26,01,39,9.00
2009,09,26,01,40,9.00
2009,09,26,01,41,9.00
2009,09,26,01,42,9.10
2009,09,26,01,43,9.10
2009,09,26,01,44,9.00
2009,09,26,01,45,8.90
2009,09,26,01,46,8.80
2009,09,26,01,47,8.70
2009,09,26,01,48,8.70
2009,09,26,01,49,8.60
2009,09,26,01,50,8.60
2009,09,26,01,51,8.50
2009,09,26,01,52,8.50
2009,09,26,01,53,8.50
2009,09,26,01,54,8.50
2009,09,26,01,55,8.50
2009,09,26,01,56,8.50
2009,09,26,01,57,8.50
2009,09,26,01,58,8.50
2009,09,26,01,59,8.60
2009,09,26,02,00,8.60
2009,09,26,02,01,8.60
2009,09,26,02,02,8.60
2009,09,26,02,03,8.70
2009,09,26,02,04,8.70
2009,09,26,02,05,8.60
2009,09,26,02,06,8.60
2009,09,26,02,07,8.60
2009,09,26,02,08,8.60
2009,09,26,02,09,8.60
2009,09,26,02,10,8.60
2009,09,26,02,11,8.70
2009,09,26,02,12,8.70
2009,09,26,02,13,8.70
2009,09,26,02,14,8.70
2009,09,26,02,15,8.70
2009,09,26,02,16,8.70
2009,09,26,02,17,8.70
2009,09,26,02,18,8.70
2009,09,26,02,19,8.70
2009,09,26,02,20,8.70
2009,09,26,02,21,8.70
2009,09,26,02,22,8.70
2009,09,26,02,23,8.70
2009,09,26,02,24,8.70
2009,09,26,02,25,8.70
2009,09,26,02,26,8.70
2009,09,26,02,27,8.70
2009,09,26,02,28,8.70
2009,09,26,02,29,8.70
2009,09,26,02,30,8.80
2009,09,26,02,31,8.80
2009,09,26,02,32,8.90
2009,09,26,02,33,8.90
2009,09,26,02,34,9.00
2009,09,26,02,35,9.00
2009,09,26,02,36,9.00
2009,09,26,02,37,9.10
2009,09,26,02,38,9.20
2009,09,26,02,39,9.20
2009,09,26,02,40,9.20
2009,09,26,02,41,9.20
2009,09,26,02,42,9.30
2009,09,26,02,43,9.30
2009,09,26,02,44,9.40
2009,09,26,02,45,9.40
2009,09,26,02,46,9.50
2009,09,26,02,47,9.50
2009,09,26,02,48,9.60
2009,09,26,02,49,9.60
2009,09,26,02,50,9.70
2009,09,26,02,51,9.70
2009,09,26,02,52,9.80
2009,09,26,02,53,9.90
2009,09,26,02,54,9.90
2009,09,26,02,55,10.10
2009,09,26,02,56,10.10
2009,09,26,02,57,10.10
2009,09,26,02,58,10.20
2009,09,26,02,59,10.20
2009,09,26,03,00,10.20
2009,09,26,03,01,10.20
2009,09,26,03,02,10.20
2009,09,26,03,03,10.20
2009,09,26,03,04,10.20
2009,09,26,03,05,10.20
2009,09,26,03,06,10.10
2009,09,26,03,07,10.10
2009,09,26,03,08,10.10
2009,09,26,03,09,10.10
2009,09,26,03,10,10.10
2009,09,26,03,11,10.00
2009,09,26,03,12,9.90
2009,09,26,03,13,9.90
2009,09,26,03,14,9.90
2009,09,26,03,15,9.90
2009,09,26,03,16,9.80
2009,09,26,03,17,9.80
2009,09,26,03,18,9.70
2009,09,26,03,19,9.70
2009,09,26,03,20,9.70
2009,09,26,03,21,9.70
2009,09,26,03,22,9.60
2009,09,26,03,23,9.60
2009,09,26,03,24,9.60
2009,09,26,03,25,9.60
2009,09,26,03,26,9.60
2009,09,26,03,27,9.70
2009,09,26,03,28,9.70
2009,09,26,03,29,9.70
2009,09,26,03,30,9.80
2009,09,26,03,31,9.80
2009,09,26,03,32,9.80
2009,09,26,03,33,9.80
2009,09,26,03,34,9.80
2009,09,26,03,35,9.80
2009,09,26,03,36,9.80
2009,09,26,03,37,9.80
2009,09,26,03,38,9.80
2009,09,26,03,39,9.70
2009,09,26,03,40,9.70
2009,09,26,03,41,9.60
2009,09,26,03,42,9.60
2009,09,26,03,43,9.50
2009,09,26,03,44,9.50
2009,09,26,03,45,9.60
2009,09,26,03,46,9.60
2009,09,26,03,47,9.60
2009,09,26,03,48,9.70
2009,09,26,03,49,9.70
2009,09,26,03,50,9.70
2009,09,26,03,51,9.70
2009,09,26,03,52,9.60
2009,09,26,03,53,9.60
2009,09,26,03,54,9.50
2009,09,26,03,55,9.50
2009,09,26,03,56,9.50
2009,09,26,03,57,9.50
2009,09,26,03,58,9.50
2009,09,26,03,59,9.50
2009,09,26,04,00,9.50
2009,09,26,04,01,9.40
2009,09,26,04,02,9.30
2009,09,26,04,03,9.20
2009,09,26,04,04,9.20
2009,09,26,04,05,9.20
2009,09,26,04,06,9.10
2009,09,26,04,07,9.00
2009,09,26,04,08,9.10
2009,09,26,04,09,9.10
2009,09,26,04,10,9.10
2009,09,26,04,11,9.00
2009,09,26,04,12,9.00
2009,09,26,04,13,9.00
2009,09,26,04,14,9.00
2009,09,26,04,15,9.00
2009,09,26,04,16,8.90
2009,09,26,04,17,8.90
2009,09,26,04,18,8.90
2009,09,26,04,19,8.80
2009,09,26,04,20,8.80
2009,09,26,04,21,8.70
2009,09,26,04,22,8.70
2009,09,26,04,23,8.70
2009,09,26,04,24,8.70
2009,09,26,04,25,8.70
2009,09,26,04,26,8.80
2009,09,26,04,27,8.80
2009,09,26,04,28,8.90
2009,09,26,04,29,9.00
2009,09,26,04,30,9.00
2009,09,26,04,31,9.10
2009,09,26,04,32,9.10
2009,09,26,04,33,9.20
2009,09,26,04,34,9.20
2009,09,26,04,35,9.10
2009,09,26,04,36,9.00
2009,09,26,04,37,8.90
2009,09,26,04,38,8.70
2009,09,26,04,39,8.60
2009,09,26,04,40,8.50
2009,09,26,04,41,8.50
2009,09,26,04,42,8.40
2009,09,26,04,43,8.30
2009,09,26,04,44,8.30
2009,09,26,04,45,8.30
2009,09,26,04,46,8.40
2009,09,26,04,47,8.40
2009,09,26,04,48,8.40
2009,09,26,04,49,8.30
2009,09,26,04,50,8.30
2009,09,26,04,51,8.20
2009,09,26,04,52,8.20
2009,09,26,04,53,8.10
2009,09,26,04,54,8.10
2009,09,26,04,55,8.00
2009,09,26,04,56,7.90
2009,09,26,04,57,7.90
2009,09,26,04,58,7.80
2009,09,26,04,59,7.80
2009,09,26,05,00,7.80
2009,09,26,05,01,7.80
2009,09,26,05,02,7.80
2009,09,26,05,03,7.80
2009,09,26,05,04,7.80
2009,09,26,05,05,7.80
2009,09,26,05,06,7.80
2009,09,26,05,07,7.80
2009,09,26,05,08,7.90
2009,09,26,05,09,7.90
2009,09,26,05,10,8.00
2009,09,26,05,11,8.10
2009,09,26,05,12,8.40
2009,09,26,05,13,8.50
2009,09,26,05,14,8.50
2009,09,26,05,15,8.50
2009,09,26,05,16,8.40
2009,09,26,05,17,8.50
2009,09,26,05,18,8.70
2009,09,26,05,19,8.60
2009,09,26,05,20,8.60
2009,09,26,05,21,8.50
2009,09,26,05,22,8.50
2009,09,26,05,23,8.50
2009,09,26,05,24,8.50
2009,09,26,05,25,8.50
2009,09,26,05,26,8.50
2009,09,26,05,27,8.40
2009,09,26,05,28,8.40
2009,09,26,05,29,8.40
2009,09,26,05,30,8.30
2009,09,26,05,31,8.30
2009,09,26,05,32,8.20
2009,09,26,05,33,8.20
2009,09,26,05,34,8.20
2009,09,26,05,35,8.20
2009,09,26,05,36,8.20
2009,09,26,05,37,8.20
2009,09,26,05,38,8.10
2009,09,26,05,39,8.00
2009,09,26,05,40,8.00
2009,09,26,05,41,7.90
2009,09,26,05,42,7.80
2009,09,26,05,43,7.80
2009,09,26,05,44,7.70
2009,09,26,05,45,7.60
2009,09,26,05,46,7.60
2009,09,26,05,47,7.60
2009,09,26,05,48,7.60
2009,09,26,05,49,7.70
2009,09,26,05,50,7.80
2009,09,26,05,51,7.80
2009,09,26,05,52,7.80
2009,09,26,05,53,7.90
2009,09,26,05,54,7.90
2009,09,26,05,55,8.00
2009,09,26,05,56,8.00
2009,09,26,05,57,8.10
2009,09,26,05,58,8.00
2009,09,26,05,59,8.00
2009,09,26,06,00,8.00
2009,09,26,06,01,8.10
2009,09,26,06,02,8.20
2009,09,26,06,03,8.20
2009,09,26,06,04,8.20
2009,09,26,06,05,8.20
2009,09,26,06,06,8.30
2009,09,26,06,07,8.30
2009,09,26,06,08,8.30
2009,09,26,06,09,8.30
2009,09,26,06,10,8.30
2009,09,26,06,11,8.30
2009,09,26,06,12,8.30
2009,09,26,06,13,8.30
2009,09,26,06,14,8.20
2009,09,26,06,15,8.20
2009,09,26,06,16,8.20
2009,09,26,06,17,8.20
2009,09,26,06,18,8.20
2009,09,26,06,19,8.20
2009,09,26,06,20,8.20
2009,09,26,06,21,8.20
2009,09,26,06,22,8.00
2009,09,26,06,23,7.90
2009,09,26,06,24,7.80
2009,09,26,06,25,7.80
2009,09,26,06,26,7.70
2009,09,26,06,27,7.60
2009,09,26,06,28,7.60
2009,09,26,06,29,7.50
2009,09,26,06,30,7.40
2009,09,26,06,31,7.40
2009,09,26,06,32,7.40
2009,09,26,06,33,7.40
2009,09,26,06,34,7.40
2009,09,26,06,35,7.30
2009,09,26,06,36,7.30
2009,09,26,06,37,7.30
2009,09,26,06,38,7.30
2009,09,26,06,39,7.20
2009,09,26,06,40,7.20
2009,09,26,06,41,7.20
2009,09,26,06,42,7.10
2009,09,26,06,43,7.10
2009,09,26,06,44,7.10
2009,09,26,06,45,7.10
2009,09,26,06,46,7.10
2009,09,26,06,47,7.10
2009,09,26,06,48,7.10
2009,09,26,06,49,7.10
2009,09,26,06,50,7.20
2009,09,26,06,51,7.20
2009,09,26,06,52,7.20
2009,09,26,06,53,7.20
2009,09,26,06,54,7.30
2009,09,26,06,55,7.30
2009,09,26,06,56,7.30
2009,09,26,06,57,7.30
2009,09,26,06,58,7.40
2009,09,26,06,59,7.40
2009,09,26,07,00,7.40
2009,09,26,07,01,7.40
2009,09,26,07,02,7.40
2009,09,26,07,03,7.40
2009,09,26,07,04,7.30
2009,09,26,07,05,7.30
2009,09,26,07,06,7.30
2009,09,26,07,07,7.20
2009,09,26,07,08,7.20
2009,09,26,07,09,7.20
2009,09,26,07,10,7.20
2009,09,26,07,11,7.20
2009,09,26,07,12,7.20
2009,09,26,07,13,7.20
2009,09,26,07,14,7.20
2009,09,26,07,15,7.20
2009,09,26,07,16,7.10
2009,09,26,07,17,7.10
2009,09,26,07,18,7.10
2009,09,26,07,19,7.00
2009,09,26,07,20,7.00
2009,09,26,07,21,7.00
2009,09,26,07,22,7.00
2009,09,26,07,23,7.00
2009,09,26,07,24,7.00
2009,09,26,07,25,7.00
2009,09,26,07,26,7.00
2009,09,26,07,27,7.00
2009,09,26,07,28,7.00
2009,09,26,07,29,7.00
2009,09,26,07,30,7.00
2009,09,26,07,31,7.00
2009,09,26,07,32,7.10
2009,09,26,07,33,7.10
2009,09,26,07,34,7.10
2009,09,26,07,35,7.10
2009,09,26,07,36,7.10
2009,09,26,07,37,7.20
2009,09,26,07,38,7.20
2009,09,26,07,39,7.30
2009,09,26,07,40,7.30
2009,09,26,07,41,7.30
2009,09,26,07,42,7.20
2009,09,26,07,43,7.20
2009,09,26,07,44,7.20
2009,09,26,07,45,7.30
2009,09,26,07,46,7.30
2009,09,26,07,47,7.40
2009,09,26,07,48,7.50
2009,09,26,07,49,7.70
2009,09,26,07,50,7.80
2009,09,26,07,51,7.90
2009,09,26,07,52,7.90
2009,09,26,07,53,7.90
2009,09,26,07,54,8.00
2009,09,26,07,55,8.00
2009,09,26,07,56,8.10
2009,09,26,07,57,8.10
2009,09,26,07,58,8.10
2009,09,26,07,59,8.10
2009,09,26,08,00,8.10
2009,09,26,08,01,8.20
2009,09,26,08,02,8.20
2009,09,26,08,03,8.20
2009,09,26,08,04,8.20
2009,09,26,08,05,8.30
2009,09,26,08,06,8.50
2009,09,26,08,07,8.60
2009,09,26,08,08,8.70
2009,09,26,08,09,8.80
2009,09,26,08,10,8.90
2009,09,26,08,11,9.00
2009,09,26,08,12,9.10
2009,09,26,08,13,9.30
2009,09,26,08,14,9.40
2009,09,26,08,15,9.40
2009,09,26,08,16,9.50
2009,09,26,08,17,9.50
2009,09,26,08,18,9.60
2009,09,26,08,19,9.70
2009,09,26,08,20,9.80
2009,09,26,08,21,9.90
2009,09,26,08,22,10.00
2009,09,26,08,23,10.10
2009,09,26,08,24,10.30
2009,09,26,08,25,10.40
2009,09,26,08,26,10.50
2009,09,26,08,27,10.60
2009,09,26,08,28,10.60
2009,09,26,08,29,10.70
2009,09,26,08,30,10.80
2009,09,26,08,31,10.90
2009,09,26,08,32,11.00
2009,09,26,08,33,11.10
2009,09,26,08,34,11.20
2009,09,26,08,35,11.30
2009,09,26,08,36,11.40
2009,09,26,08,37,11.50
2009,09,26,08,38,11.60
2009,09,26,08,39,11.70
2009,09,26,08,40,11.80
2009,09,26,08,41,11.90
2009,09,26,08,42,12.00
2009,09,26,08,43,12.00
2009,09,26,08,44,12.10
2009,09,26,08,45,12.20
2009,09,26,08,46,12.30
2009,09,26,08,47,12.40
2009,09,26,08,48,12.50
2009,09,26,08,49,12.60
2009,09,26,08,50,12.70
2009,09,26,08,51,12.70
2009,09,26,08,52,12.80
2009,09,26,08,53,12.80
2009,09,26,08,54,12.90
2009,09,26,08,55,13.00
2009,09,26,08,56,13.10
2009,09,26,08,57,13.10
2009,09,26,08,58,13.20
2009,09,26,08,59,13.30
2009,09,26,09,00,13.30
2009,09,26,09,01,13.40
2009,09,26,09,02,13.40
2009,09,26,09,03,13.50
2009,09,26,09,04,13.50
2009,09,26,09,05,13.60
2009,09,26,09,06,13.60
2009,09,26,09,07,13.70
2009,09,26,09,08,13.70
2009,09,26,09,09,13.70
2009,09,26,09,10,13.80
2009,09,26,09,11,13.90
2009,09,26,09,12,13.90
2009,09,26,09,13,14.00
2009,09,26,09,14,14.10
2009,09,26,09,15,14.10
2009,09,26,09,16,14.10
2009,09,26,09,17,14.20
2009,09,26,09,18,14.20
2009,09,26,09,19,14.20
2009,09,26,09,20,14.30
2009,09,26,09,21,14.40
2009,09,26,09,22,14.40
2009,09,26,09,23,14.40
2009,09,26,09,24,14.40
2009,09,26,09,25,14.40
2009,09,26,09,26,14.50
2009,09,26,09,27,14.60
2009,09,26,09,28,14.60
2009,09,26,09,29,14.60
2009,09,26,09,30,14.70
2009,09,26,09,31,14.80
2009,09,26,09,32,14.80
2009,09,26,09,33,14.80
2009,09,26,09,34,14.80
2009,09,26,09,35,14.90
2009,09,26,09,36,14.90
2009,09,26,09,37,14.90
2009,09,26,09,38,15.00
2009,09,26,09,39,15.10
2009,09,26,09,40,15.10
2009,09,26,09,41,15.10
2009,09,26,09,42,15.20
2009,09,26,09,43,15.20
2009,09,26,09,44,15.30
2009,09,26,09,45,15.30
2009,09,26,09,46,15.30
2009,09,26,09,47,15.30
2009,09,26,09,48,15.40
2009,09,26,09,49,15.50
2009,09,26,09,50,15.50
2009,09,26,09,51,15.60
2009,09,26,09,52,15.60
2009,09,26,09,53,15.70
2009,09,26,09,54,15.80
2009,09,26,09,55,15.90
2009,09,26,09,56,16.10
2009,09,26,09,57,16.10
2009,09,26,09,58,16.20
2009,09,26,09,59,16.30
2009,09,26,10,00,16.30
2009,09,26,10,01,16.40
2009,09,26,10,02,16.40
2009,09,26,10,03,16.50
2009,09,26,10,04,16.60
2009,09,26,10,05,16.60
2009,09,26,10,06,16.60
2009,09,26,10,07,16.60
2009,09,26,10,08,16.60
2009,09,26,10,09,16.70
2009,09,26,10,10,16.80
2009,09,26,10,11,16.80
2009,09,26,10,12,16.90
2009,09,26,10,13,17.00
2009,09,26,10,14,17.00
2009,09,26,10,15,17.00
2009,09,26,10,16,17.10
2009,09,26,10,17,17.20
2009,09,26,10,18,17.20
2009,09,26,10,19,17.30
2009,09,26,10,20,17.30
2009,09,26,10,21,17.40
2009,09,26,10,22,17.50
2009,09,26,10,23,17.50
2009,09,26,10,24,17.50
2009,09,26,10,25,17.50
2009,09,26,10,26,17.50
2009,09,26,10,27,17.50
2009,09,26,10,28,17.50
2009,09,26,10,29,17.60
2009,09,26,10,30,17.60
2009,09,26,10,31,17.60
2009,09,26,10,32,17.60
2009,09,26,10,33,17.60
2009,09,26,10,34,17.70
2009,09,26,10,35,17.70
2009,09,26,10,36,17.70
2009,09,26,10,37,17.60
2009,09,26,10,38,17.60
2009,09,26,10,39,17.60
2009,09,26,10,40,17.60
2009,09,26,10,41,17.60
2009,09,26,10,42,17.60
2009,09,26,10,43,17.70
2009,09,26,10,44,17.70
2009,09,26,10,45,17.70
2009,09,26,10,46,17.70
2009,09,26,10,47,17.80
2009,09,26,10,48,17.70
2009,09,26,10,49,17.70
2009,09,26,10,50,17.70
2009,09,26,10,51,17.70
2009,09,26,10,52,17.70
2009,09,26,10,53,17.80
2009,09,26,10,54,17.70
2009,09,26,10,55,17.70
2009,09,26,10,56,17.70
2009,09,26,10,57,17.80
2009,09,26,10,58,17.80
2009,09,26,10,59,17.80
2009,09,26,11,00,17.80
2009,09,26,11,01,17.90
2009,09,26,11,02,17.90
2009,09,26,11,03,17.90
2009,09,26,11,04,17.80
2009,09,26,11,05,17.90
2009,09,26,11,06,17.90
2009,09,26,11,07,18.10
2009,09,26,11,08,18.10
2009,09,26,11,09,18.20
2009,09,26,11,10,18.10
2009,09,26,11,11,18.10
2009,09,26,11,12,18.20
2009,09,26,11,13,18.20
2009,09,26,11,14,18.20
2009,09,26,11,15,18.10
2009,09,26,11,16,18.10
2009,09,26,11,17,18.10
2009,09,26,11,18,18.10
2009,09,26,11,19,18.10
2009,09,26,11,20,18.10
2009,09,26,11,21,18.00
2009,09,26,11,22,18.00
2009,09,26,11,23,18.10
2009,09,26,11,24,18.10
2009,09,26,11,25,18.00
2009,09,26,11,26,18.10
2009,09,26,11,27,18.10
2009,09,26,11,28,18.10
2009,09,26,11,29,18.20
2009,09,26,11,30,18.30
2009,09,26,11,31,18.40
2009,09,26,11,32,18.50
2009,09,26,11,33,18.50
2009,09,26,11,34,18.60
2009,09,26,11,35,18.50
2009,09,26,11,36,18.50
2009,09,26,11,37,18.50
2009,09,26,11,38,18.50
2009,09,26,11,39,18.50
2009,09,26,11,40,18.50
2009,09,26,11,41,18.60
2009,09,26,11,42,18.60
2009,09,26,11,43,18.60
2009,09,26,11,44,18.60
2009,09,26,11,45,18.60
2009,09,26,11,46,18.60
2009,09,26,11,47,18.60
2009,09,26,11,48,18.60
2009,09,26,11,49,18.60
2009,09,26,11,50,18.60
2009,09,26,11,51,18.60
2009,09,26,11,52,18.70
2009,09,26,11,53,18.70
2009,09,26,11,54,18.70
2009,09,26,11,55,18.60
2009,09,26,11,56,18.60
2009,09,26,11,57,18.50
2009,09,26,11,58,18.40
2009,09,26,11,59,18.40
2009,09,26,12,00,18.40
2009,09,26,12,01,18.50
2009,09,26,12,02,18.60
2009,09,26,12,03,18.70
2009,09,26,12,04,18.70
2009,09,26,12,05,18.70
2009,09,26,12,06,18.70
2009,09,26,12,07,18.60
2009,09,26,12,08,18.50
2009,09,26,12,09,18.40
2009,09,26,12,10,18.40
2009,09,26,12,11,18.30
2009,09,26,12,12,18.30
2009,09,26,12,13,18.30
2009,09,26,12,14,18.30
2009,09,26,12,15,18.30
2009,09,26,12,16,18.30
2009,09,26,12,17,18.30
2009,09,26,12,18,18.30
2009,09,26,12,19,18.20
2009,09,26,12,20,18.20
2009,09,26,12,21,18.20
2009,09,26,12,22,18.20
2009,09,26,12,23,18.20
2009,09,26,12,24,18.30
2009,09,26,12,25,18.30
2009,09,26,12,26,18.40
2009,09,26,12,27,18.40
2009,09,26,12,28,18.50
2009,09,26,12,29,18.50
2009,09,26,12,30,18.60
2009,09,26,12,31,18.50
2009,09,26,12,32,18.50
2009,09,26,12,33,18.50
2009,09,26,12,34,18.50
2009,09,26,12,35,18.50
2009,09,26,12,36,18.40
2009,09,26,12,37,18.30
2009,09,26,12,38,18.20
2009,09,26,12,39,18.10
2009,09,26,12,40,17.90
2009,09,26,12,41,17.90
2009,09,26,12,42,18.00
2009,09,26,12,43,18.10
2009,09,26,12,44,18.10
2009,09,26,12,45,18.10
2009,09,26,12,46,18.10
2009,09,26,12,47,18.10
2009,09,26,12,48,18.20
2009,09,26,12,49,18.20
2009,09,26,12,50,18.20
2009,09,26,12,51,18.30
2009,09,26,12,52,18.20
2009,09,26,12,53,18.20
2009,09,26,12,54,18.10
2009,09,26,12,55,17.90
2009,09,26,12,56,17.90
2009,09,26,12,57,17.90
2009,09,26,12,58,17.90
2009,09,26,12,59,17.90
2009,09,26,13,00,17.90
2009,09,26,13,01,17.90
2009,09,26,13,02,17.90
2009,09,26,13,03,17.90
2009,09,26,13,04,17.80
2009,09,26,13,05,17.70
2009,09,26,13,06,17.60
2009,09,26,13,07,17.50
2009,09,26,13,08,17.40
2009,09,26,13,09,17.30
2009,09,26,13,10,17.40
2009,09,26,13,11,17.40
2009,09,26,13,12,17.50
2009,09,26,13,13,17.50
2009,09,26,13,14,17.60
2009,09,26,13,15,17.60
2009,09,26,13,16,17.60
2009,09,26,13,17,17.70
2009,09,26,13,18,17.70
2009,09,26,13,19,17.70
2009,09,26,13,20,17.70
2009,09,26,13,21,17.80
2009,09,26,13,22,17.80
2009,09,26,13,23,17.90
2009,09,26,13,24,17.90
2009,09,26,13,25,17.90
2009,09,26,13,26,17.90
2009,09,26,13,27,18.00
2009,09,26,13,28,18.00
2009,09,26,13,29,17.90
2009,09,26,13,30,17.90
2009,09,26,13,31,17.80
2009,09,26,13,32,17.80
2009,09,26,13,33,17.80
2009,09,26,13,34,17.80
2009,09,26,13,35,17.80
2009,09,26,13,36,17.90
2009,09,26,13,37,17.90
2009,09,26,13,38,17.90
2009,09,26,13,39,17.80
2009,09,26,13,40,17.70
2009,09,26,13,41,17.80
2009,09,26,13,42,17.80
2009,09,26,13,43,17.80
2009,09,26,13,44,17.90
2009,09,26,13,45,17.80
2009,09,26,13,46,17.80
2009,09,26,13,47,17.80
2009,09,26,13,48,17.80
2009,09,26,13,49,17.80
2009,09,26,13,50,17.80
2009,09,26,13,51,17.70
2009,09,26,13,52,17.60
2009,09,26,13,53,17.60
2009,09,26,13,54,17.60
2009,09,26,13,55,17.60
2009,09,26,13,56,17.70
2009,09,26,13,57,17.80
2009,09,26,13,58,17.80
2009,09,26,13,59,17.90
2009,09,26,14,00,17.90
2009,09,26,14,01,17.90
2009,09,26,14,02,17.80
2009,09,26,14,03,17.70
2009,09,26,14,04,17.70
2009,09,26,14,05,17.70
2009,09,26,14,06,17.80
2009,09,26,14,07,17.80
2009,09,26,14,08,17.80
2009,09,26,14,09,17.80
2009,09,26,14,10,17.70
2009,09,26,14,11,17.70
2009,09,26,14,12,17.60
2009,09,26,14,13,17.60
2009,09,26,14,14,17.60
2009,09,26,14,15,17.50
2009,09,26,14,16,17.40
2009,09,26,14,17,17.30
2009,09,26,14,18,17.30
2009,09,26,14,19,17.30
2009,09,26,14,20,17.30
2009,09,26,14,21,17.30
2009,09,26,14,22,17.30
2009,09,26,14,23,17.20
2009,09,26,14,24,17.20
2009,09,26,14,25,17.10
2009,09,26,14,26,17.20
2009,09,26,14,27,17.20
2009,09,26,14,28,17.20
2009,09,26,14,29,17.30
2009,09,26,14,30,17.30
2009,09,26,14,31,17.30
2009,09,26,14,32,17.40
2009,09,26,14,33,17.50
2009,09,26,14,34,17.50
2009,09,26,14,35,17.70
2009,09,26,14,36,17.80
2009,09,26,14,37,17.90
2009,09,26,14,38,17.90
2009,09,26,14,39,17.90
2009,09,26,14,40,17.90
2009,09,26,14,41,17.90
2009,09,26,14,42,17.90
2009,09,26,14,43,17.90
2009,09,26,14,44,17.90
2009,09,26,14,45,17.90
2009,09,26,14,46,18.00
2009,09,26,14,47,18.20
2009,09,26,14,48,18.30
2009,09,26,14,49,18.40
2009,09,26,14,50,18.40
2009,09,26,14,51,18.30
2009,09,26,14,52,18.20
2009,09,26,14,53,18.20
2009,09,26,14,54,18.30
2009,09,26,14,55,18.30
2009,09,26,14,56,18.30
2009,09,26,14,57,18.30
2009,09,26,14,58,18.20
2009,09,26,14,59,18.20
2009,09,26,15,00,18.20
2009,09,26,15,01,18.20
2009,09,26,15,02,18.20
2009,09,26,15,03,18.20
2009,09,26,15,04,18.20
2009,09,26,15,05,18.30
2009,09,26,15,06,18.40
2009,09,26,15,07,18.40
2009,09,26,15,08,18.40
2009,09,26,15,09,18.50
2009,09,26,15,10,18.50
2009,09,26,15,11,18.50
2009,09,26,15,12,18.50
2009,09,26,15,13,18.50
2009,09,26,15,14,18.40
2009,09,26,15,15,18.50
2009,09,26,15,16,18.60
2009,09,26,15,17,18.70
2009,09,26,15,18,18.80
2009,09,26,15,19,18.90
2009,09,26,15,20,18.90
2009,09,26,15,21,18.90
2009,09,26,15,22,18.80
2009,09,26,15,23,18.70
2009,09,26,15,24,18.70
2009,09,26,15,25,18.80
2009,09,26,15,26,18.80
2009,09,26,15,27,18.80
2009,09,26,15,28,18.80
2009,09,26,15,29,18.90
2009,09,26,15,30,18.90
2009,09,26,15,31,18.90
2009,09,26,15,32,18.90
2009,09,26,15,33,18.90
2009,09,26,15,34,18.90
2009,09,26,15,35,18.90
2009,09,26,15,36,18.80
2009,09,26,15,37,18.70
2009,09,26,15,38,18.70
2009,09,26,15,39,18.80
2009,09,26,15,40,18.80
2009,09,26,15,41,18.70
2009,09,26,15,42,18.70
2009,09,26,15,43,18.70
2009,09,26,15,44,18.70
2009,09,26,15,45,18.80
2009,09,26,15,46,18.80
2009,09,26,15,47,18.90
2009,09,26,15,48,18.90
2009,09,26,15,49,18.90
2009,09,26,15,50,18.90
2009,09,26,15,51,18.90
2009,09,26,15,52,18.90
2009,09,26,15,53,18.90
2009,09,26,15,54,18.90
2009,09,26,15,55,19.00
2009,09,26,15,56,19.10
2009,09,26,15,57,19.10
2009,09,26,15,58,19.10
2009,09,26,15,59,19.10
2009,09,26,16,00,19.10
2009,09,26,16,01,19.10
2009,09,26,16,02,19.10
2009,09,26,16,03,19.10
2009,09,26,16,04,19.10
2009,09,26,16,05,18.90
2009,09,26,16,06,18.80
2009,09,26,16,07,18.80
2009,09,26,16,08,18.70
2009,09,26,16,09,18.60
2009,09,26,16,10,18.50
2009,09,26,16,11,18.40
2009,09,26,16,12,18.30
2009,09,26,16,13,18.30
2009,09,26,16,14,18.30
2009,09,26,16,15,18.30
2009,09,26,16,16,18.20
2009,09,26,16,17,18.30
2009,09,26,16,18,18.30
2009,09,26,16,19,18.30
2009,09,26,16,20,18.30
2009,09,26,16,21,18.30
2009,09,26,16,22,18.30
2009,09,26,16,23,18.30
2009,09,26,16,24,18.20
2009,09,26,16,25,18.20
2009,09,26,16,26,18.20
2009,09,26,16,27,18.20
2009,09,26,16,28,18.20
2009,09,26,16,29,18.20
2009,09,26,16,30,18.20
2009,09,26,16,31,18.20
2009,09,26,16,32,18.20
2009,09,26,16,33,18.20
2009,09,26,16,34,18.20
2009,09,26,16,35,18.20
2009,09,26,16,36,18.10
2009,09,26,16,37,18.10
2009,09,26,16,38,18.10
2009,09,26,16,39,18.10
2009,09,26,16,40,18.20
2009,09,26,16,41,18.20
2009,09,26,16,42,18.20
2009,09,26,16,43,18.20
2009,09,26,16,44,18.10
2009,09,26,16,45,18.00
2009,09,26,16,46,17.90
2009,09,26,16,47,17.90
2009,09,26,16,48,17.90
2009,09,26,16,49,17.90
2009,09,26,16,50,17.90
2009,09,26,16,51,18.00
2009,09,26,16,52,18.00
2009,09,26,16,53,17.90
2009,09,26,16,54,17.90
2009,09,26,16,55,18.00
2009,09,26,16,56,18.10
2009,09,26,16,57,18.10
2009,09,26,16,58,18.10
2009,09,26,16,59,18.00
2009,09,26,17,00,17.90
2009,09,26,17,01,17.90
2009,09,26,17,02,17.90
2009,09,26,17,03,17.80
2009,09,26,17,04,17.80
2009,09,26,17,05,17.80
2009,09,26,17,06,17.70
2009,09,26,17,07,17.70
2009,09,26,17,08,17.70
2009,09,26,17,09,17.70
2009,09,26,17,10,17.60
2009,09,26,17,11,17.60
2009,09,26,17,12,17.50
2009,09,26,17,13,17.40
2009,09,26,17,14,17.30
2009,09,26,17,15,17.30
2009,09,26,17,16,17.30
2009,09,26,17,17,17.30
2009,09,26,17,18,17.30
2009,09,26,17,19,17.20
2009,09,26,17,20,17.20
2009,09,26,17,21,17.20
2009,09,26,17,22,17.20
2009,09,26,17,23,17.20
2009,09,26,17,24,17.20
2009,09,26,17,25,17.20
2009,09,26,17,26,17.20
2009,09,26,17,27,17.10
2009,09,26,17,28,17.10
2009,09,26,17,29,17.00
2009,09,26,17,30,17.00
2009,09,26,17,31,17.00
2009,09,26,17,32,17.00
2009,09,26,17,33,17.00
2009,09,26,17,34,17.00
2009,09,26,17,35,16.90
2009,09,26,17,36,16.90
2009,09,26,17,37,16.90
2009,09,26,17,38,16.90
2009,09,26,17,39,16.90
2009,09,26,17,40,16.80